SWR1HW LGAV-LSZH

Flight info

Callsign SWR1HW
Flight time 2h 24m
Altitude 40000
Route KOR UL53 ELVAS DCT TUMBO DCT RODON DCT VAKSU DCT SPL DCT MONFA DCT BAKOR DCT SOTOV P66 KPT L856 NEGRA
Aircraft A343/H-SDE2E3FGHIJ4J5M1RWXY/LB1D1

Departure

Time 2026-05-06 22:15
Airport Athens Eleftherios Venizelos International Airport (LGAV)

Arrival

Time 2026-05-07 00:40
Airport Zürich Airport (LSZH)
Time Latitude Longitude Altitude Speed Heading
2026-05-06 21:46 37.92985 23.94367 305 ft 0 kts 37°
2026-05-06 22:06 37.92974 23.94357 307 ft 4 kts 40°
2026-05-06 22:06 37.92955 23.94333 306 ft 4 kts 49°
2026-05-06 22:06 37.92939 23.94306 305 ft 4 kts 66°
2026-05-06 22:06 37.92933 23.94276 307 ft 4 kts 106°
2026-05-06 22:07 37.92937 23.94264 306 ft 0 kts 127°
2026-05-06 22:11 37.92930 23.94275 309 ft 3 kts 127°
2026-05-06 22:11 37.92916 23.94299 310 ft 4 kts 127°
2026-05-06 22:11 37.92891 23.94341 308 ft 8 kts 127°
2026-05-06 22:11 37.92852 23.94408 310 ft 10 kts 127°
2026-05-06 22:12 37.92800 23.94457 310 ft 9 kts 174°
2026-05-06 22:12 37.92745 23.94423 311 ft 10 kts 217°
2026-05-06 22:12 37.92686 23.94367 311 ft 11 kts 217°
2026-05-06 22:12 37.92620 23.94306 311 ft 12 kts 217°
2026-05-06 22:13 37.92550 23.94239 310 ft 13 kts 217°
2026-05-06 22:13 37.92471 23.94167 310 ft 14 kts 205°
2026-05-06 22:13 37.92415 23.94222 310 ft 11 kts 98°
2026-05-06 22:13 37.92413 23.94306 312 ft 9 kts 91°
2026-05-06 22:14 37.92418 23.94378 314 ft 8 kts 71°
2026-05-06 22:14 37.92455 23.94423 313 ft 4 kts 38°
2026-05-06 22:14 37.92456 23.94424 313 ft 0 kts 38°
2026-05-06 22:14 37.92493 23.94460 314 ft 30 kts 38°
2026-05-06 22:15 37.92912 23.94856 306 ft 117 kts 37°
2026-05-06 22:15 37.93765 23.95666 296 ft 186 kts 36°
2026-05-06 22:15 37.94823 23.96706 1085 ft 195 kts 38°
2026-05-06 22:15 37.95911 23.97825 1969 ft 212 kts 38°
2026-05-06 22:16 37.97125 23.98996 2532 ft 231 kts 37°
2026-05-06 22:16 37.98466 24.00283 3124 ft 248 kts 36°
2026-05-06 22:16 37.99877 24.01596 3980 ft 253 kts 36°
2026-05-06 22:16 38.01289 24.02938 4965 ft 255 kts 37°
2026-05-06 22:17 38.02711 24.04298 5899 ft 257 kts 37°
2026-05-06 22:17 38.04146 24.05675 6832 ft 260 kts 37°
2026-05-06 22:17 38.05597 24.07068 7703 ft 263 kts 36°
2026-05-06 22:17 38.07057 24.08471 8697 ft 263 kts 36°
2026-05-06 22:18 38.08408 24.10009 9546 ft 267 kts 49°
2026-05-06 22:18 38.09304 24.12091 10360 ft 274 kts 73°
2026-05-06 22:18 38.09428 24.14514 11093 ft 281 kts 99°
2026-05-06 22:18 38.08696 24.16826 11820 ft 288 kts 126°
2026-05-06 22:19 38.07215 24.18530 12544 ft 292 kts 153°
2026-05-06 22:19 38.05279 24.19242 13290 ft 293 kts 180°
2026-05-06 22:19 38.03294 24.18799 14016 ft 291 kts 207°
2026-05-06 22:19 38.01674 24.17309 14694 ft 288 kts 233°
2026-05-06 22:20 38.00652 24.15144 15377 ft 287 kts 249°
2026-05-06 22:20 37.99864 24.12810 16065 ft 290 kts 251°
2026-05-06 22:20 37.99088 24.10436 16757 ft 293 kts 251°
2026-05-06 22:20 37.98295 24.08045 17430 ft 296 kts 251°
2026-05-06 22:21 37.97485 24.05635 18129 ft 297 kts 250°
2026-05-06 22:21 37.96667 24.03225 18773 ft 299 kts 250°
2026-05-06 22:21 37.95841 24.00792 19317 ft 302 kts 250°
2026-05-06 22:21 37.95002 23.98332 19853 ft 306 kts 250°
2026-05-06 22:22 37.94153 23.95845 20399 ft 309 kts 250°
2026-05-06 22:22 37.93294 23.93334 20924 ft 312 kts 250°
2026-05-06 22:22 37.92422 23.90786 21329 ft 321 kts 250°
2026-05-06 22:22 37.91517 23.88140 21582 ft 334 kts 250°
2026-05-06 22:23 37.90575 23.85387 21836 ft 347 kts 250°
2026-05-06 22:23 37.89717 23.82521 22086 ft 357 kts 256°
2026-05-06 22:23 37.89183 23.79411 22335 ft 367 kts 265°
2026-05-06 22:23 37.89082 23.76144 22610 ft 376 kts 274°
2026-05-06 22:24 37.89230 23.72799 22888 ft 386 kts 275°
2026-05-06 22:24 37.89416 23.69376 23297 ft 392 kts 275°
2026-05-06 22:24 37.89603 23.65903 23754 ft 397 kts 275°
2026-05-06 22:24 37.89787 23.62393 24168 ft 401 kts 275°
2026-05-06 22:25 37.89967 23.58861 24603 ft 404 kts 275°
2026-05-06 22:25 37.90146 23.55297 25048 ft 407 kts 275°
2026-05-06 22:25 37.90324 23.51716 25479 ft 409 kts 275°
2026-05-06 22:25 37.90502 23.48099 25919 ft 412 kts 275°
2026-05-06 22:26 37.90680 23.44457 26343 ft 414 kts 275°
2026-05-06 22:26 37.90855 23.40850 26742 ft 417 kts 275°
2026-05-06 22:26 37.91031 23.37172 27131 ft 420 kts 275°
2026-05-06 22:26 37.91209 23.33459 27540 ft 423 kts 275°
2026-05-06 22:27 37.91386 23.29734 27936 ft 425 kts 275°
2026-05-06 22:27 37.91564 23.25983 28325 ft 428 kts 275°
2026-05-06 22:27 37.91741 23.22210 28712 ft 430 kts 275°
2026-05-06 22:27 37.91918 23.18415 29086 ft 433 kts 275°
2026-05-06 22:28 37.92094 23.14605 29452 ft 435 kts 276°
2026-05-06 22:28 37.92271 23.10763 29810 ft 438 kts 276°
2026-05-06 22:28 37.92446 23.06898 30097 ft 441 kts 276°
2026-05-06 22:28 37.92621 23.03001 30370 ft 444 kts 276°
2026-05-06 22:29 37.92851 22.99101 30653 ft 445 kts 279°
2026-05-06 22:29 37.93439 22.95247 30967 ft 444 kts 288°
2026-05-06 22:29 37.94505 22.91580 31260 ft 443 kts 297°
2026-05-06 22:29 37.95997 22.88223 31568 ft 443 kts 304°
2026-05-06 22:30 37.97697 22.84962 31886 ft 443 kts 306°
2026-05-06 22:30 37.99454 22.81754 32234 ft 443 kts 307°
2026-05-06 22:30 38.01233 22.78573 32652 ft 441 kts 307°
2026-05-06 22:30 38.03008 22.75405 33010 ft 440 kts 307°
2026-05-06 22:31 38.04781 22.72227 33378 ft 440 kts 307°
2026-05-06 22:31 38.06538 22.69056 33765 ft 438 kts 307°
2026-05-06 22:31 38.08286 22.65890 34145 ft 437 kts 307°
2026-05-06 22:31 38.10023 22.62725 34471 ft 436 kts 307°
2026-05-06 22:32 38.11726 22.59610 34766 ft 435 kts 307°
2026-05-06 22:32 38.13449 22.56454 35076 ft 434 kts 306°
2026-05-06 22:32 38.15165 22.53307 35366 ft 433 kts 306°
2026-05-06 22:32 38.16881 22.50159 35658 ft 432 kts 306°
2026-05-06 22:33 38.18592 22.47019 35944 ft 432 kts 306°
2026-05-06 22:33 38.20302 22.43878 36273 ft 430 kts 306°
2026-05-06 22:33 38.21998 22.40761 36647 ft 427 kts 306°
2026-05-06 22:33 38.23687 22.37653 36917 ft 427 kts 306°
2026-05-06 22:34 38.25372 22.34549 37177 ft 426 kts 305°
2026-05-06 22:34 38.27056 22.31445 37444 ft 426 kts 305°
2026-05-06 22:34 38.28740 22.28340 37698 ft 426 kts 305°
2026-05-06 22:34 38.30420 22.25237 37964 ft 425 kts 305°
2026-05-06 22:35 38.32092 22.22147 38274 ft 423 kts 305°
2026-05-06 22:35 38.33762 22.19060 38546 ft 422 kts 304°
2026-05-06 22:35 38.35403 22.16019 38782 ft 422 kts 304°
2026-05-06 22:35 38.37066 22.12932 38934 ft 422 kts 304°
2026-05-06 22:36 38.38722 22.09857 39163 ft 420 kts 304°
2026-05-06 22:36 38.40370 22.06792 39369 ft 419 kts 304°
2026-05-06 22:36 38.42019 22.03723 39479 ft 420 kts 304°
2026-05-06 22:36 38.43670 22.00648 39626 ft 420 kts 304°
2026-05-06 22:37 38.45320 21.97574 39764 ft 421 kts 304°
2026-05-06 22:37 38.46972 21.94493 39901 ft 421 kts 304°
2026-05-06 22:37 38.48627 21.91403 40054 ft 421 kts 304°
2026-05-06 22:37 38.50291 21.88316 40114 ft 424 kts 306°
2026-05-06 22:38 38.54344 21.82789 40116 ft 429 kts 320°
2026-05-06 22:38 38.59151 21.78278 40112 ft 427 kts 324°
2026-05-06 22:39 38.64070 21.74064 40115 ft 428 kts 325°
2026-05-06 22:39 38.69025 21.69840 40119 ft 428 kts 325°
2026-05-06 22:40 38.73133 21.66297 40119 ft 428 kts 324°
2026-05-06 22:40 38.78062 21.62010 40121 ft 428 kts 324°
2026-05-06 22:41 38.85450 21.55553 40121 ft 428 kts 324°
2026-05-06 22:42 38.90366 21.51252 40120 ft 428 kts 324°
2026-05-06 22:42 38.95288 21.46942 40120 ft 428 kts 324°
2026-05-06 22:43 39.00206 21.42627 40120 ft 428 kts 324°
2026-05-06 22:43 39.05127 21.38301 40114 ft 428 kts 324°
2026-05-06 22:44 39.10049 21.33968 40120 ft 428 kts 324°
2026-05-06 22:44 39.14931 21.29662 40125 ft 428 kts 324°
2026-05-06 22:45 39.19844 21.25321 40104 ft 428 kts 324°
2026-05-06 22:45 39.24752 21.20976 40115 ft 428 kts 324°
2026-05-06 22:46 39.29659 21.16625 40124 ft 428 kts 324°
2026-05-06 22:46 39.34567 21.12266 40128 ft 428 kts 324°
2026-05-06 22:47 39.39491 21.07885 40142 ft 430 kts 323°
2026-05-06 22:47 39.44421 21.03491 40138 ft 430 kts 323°
2026-05-06 22:48 39.49349 20.99092 40139 ft 430 kts 323°
2026-05-06 22:48 39.54277 20.94684 40124 ft 430 kts 323°
2026-05-06 22:49 39.59177 20.90294 40135 ft 430 kts 323°
2026-05-06 22:49 39.64101 20.85874 40119 ft 430 kts 323°
2026-05-06 22:50 39.69023 20.81449 40131 ft 430 kts 323°
2026-05-06 22:50 39.73941 20.77020 40142 ft 430 kts 323°
2026-05-06 22:51 39.78830 20.72607 40128 ft 430 kts 323°
2026-05-06 22:51 39.83778 20.68136 40132 ft 430 kts 323°
2026-05-06 22:52 39.88662 20.63713 40152 ft 430 kts 323°
2026-05-06 22:52 39.93582 20.59249 40142 ft 431 kts 323°
2026-05-06 22:53 39.98502 20.54777 40140 ft 431 kts 323°
2026-05-06 22:53 40.03419 20.50301 40138 ft 431 kts 323°
2026-05-06 22:54 40.08331 20.45812 40132 ft 431 kts 322°
2026-05-06 22:54 40.13159 20.41176 40131 ft 430 kts 321°
2026-05-06 22:55 40.17922 20.36530 40137 ft 429 kts 321°
2026-05-06 22:55 40.22712 20.31880 40124 ft 429 kts 321°
2026-05-06 22:56 40.27507 20.27238 40124 ft 428 kts 321°
2026-05-06 22:56 40.32298 20.22595 40124 ft 428 kts 321°
2026-05-06 22:57 40.37089 20.17944 40113 ft 428 kts 321°
2026-05-06 22:57 40.41877 20.13287 40122 ft 428 kts 320°
2026-05-06 22:58 40.46631 20.08655 40115 ft 428 kts 320°
2026-05-06 22:58 40.51405 20.03995 40105 ft 427 kts 320°
2026-05-06 22:59 40.56183 19.99319 40101 ft 427 kts 320°
2026-05-06 22:59 40.60957 19.94640 40100 ft 427 kts 320°
2026-05-06 23:00 40.65719 19.89966 40109 ft 427 kts 320°
2026-05-06 23:00 40.70478 19.85286 40108 ft 426 kts 320°
2026-05-06 23:01 40.75232 19.80603 40098 ft 426 kts 320°
2026-05-06 23:01 40.79988 19.75900 40089 ft 429 kts 320°
2026-05-06 23:02 40.84737 19.71197 40096 ft 430 kts 320°
2026-05-06 23:02 40.89526 19.66461 40094 ft 430 kts 320°
2026-05-06 23:03 40.94320 19.61709 40089 ft 429 kts 320°
2026-05-06 23:03 40.99070 19.56987 40088 ft 429 kts 320°
2026-05-06 23:04 41.03867 19.52208 40088 ft 429 kts 320°
2026-05-06 23:04 41.08603 19.47481 40089 ft 429 kts 320°
2026-05-06 23:05 41.13373 19.42711 40091 ft 430 kts 319°
2026-05-06 23:05 41.18156 19.37919 40086 ft 431 kts 319°
2026-05-06 23:06 41.22940 19.33117 40085 ft 431 kts 319°
2026-05-06 23:06 41.27722 19.28310 40086 ft 431 kts 319°
2026-05-06 23:07 41.32498 19.23497 40086 ft 431 kts 319°
2026-05-06 23:07 41.37278 19.18673 40086 ft 431 kts 319°
2026-05-06 23:08 41.42059 19.13838 40083 ft 432 kts 319°
2026-05-06 23:08 41.46836 19.08997 40082 ft 435 kts 319°
2026-05-06 23:09 41.51671 19.04067 40085 ft 437 kts 319°
2026-05-06 23:09 41.56498 18.99123 40086 ft 438 kts 319°
2026-05-06 23:10 41.61330 18.94167 40084 ft 438 kts 319°
2026-05-06 23:10 41.66130 18.89238 40092 ft 438 kts 318°
2026-05-06 23:11 41.70960 18.84269 40075 ft 437 kts 318°
2026-05-06 23:11 41.75784 18.79296 40077 ft 437 kts 318°
2026-05-06 23:12 41.80609 18.74313 40084 ft 439 kts 318°
2026-05-06 23:12 41.85445 18.69307 40078 ft 439 kts 318°
2026-05-06 23:13 41.90292 18.64282 40091 ft 440 kts 317°
2026-05-06 23:13 41.95099 18.59289 40079 ft 439 kts 317°
2026-05-06 23:14 41.99927 18.54248 40075 ft 438 kts 316°
2026-05-06 23:14 42.04284 18.48569 40077 ft 434 kts 309°
2026-05-06 23:15 42.08422 18.42650 40077 ft 434 kts 309°
2026-05-06 23:15 42.12537 18.36652 40073 ft 437 kts 309°
2026-05-06 23:16 42.16638 18.30669 40070 ft 437 kts 308°
2026-05-06 23:16 42.20765 18.24657 40070 ft 436 kts 308°
2026-05-06 23:17 42.24881 18.18655 40070 ft 436 kts 308°
2026-05-06 23:17 42.28996 18.12642 40069 ft 436 kts 308°
2026-05-06 23:18 42.33115 18.06611 40067 ft 436 kts 308°
2026-05-06 23:18 42.37225 18.00581 40066 ft 436 kts 308°
2026-05-06 23:19 42.41332 17.94543 40072 ft 436 kts 308°
2026-05-06 23:19 42.45409 17.88536 40064 ft 435 kts 308°
2026-05-06 23:20 42.49498 17.82497 40060 ft 435 kts 308°
2026-05-06 23:20 42.53585 17.76448 40058 ft 435 kts 308°
2026-05-06 23:21 42.57673 17.70384 40051 ft 436 kts 308°
2026-05-06 23:21 42.61756 17.64314 40053 ft 438 kts 308°
2026-05-06 23:22 42.65860 17.58201 40049 ft 438 kts 308°
2026-05-06 23:22 42.69961 17.52080 40048 ft 438 kts 308°
2026-05-06 23:23 42.74068 17.45939 40048 ft 438 kts 308°
2026-05-06 23:23 42.78164 17.39800 40039 ft 438 kts 308°
2026-05-06 23:24 42.82266 17.33637 40048 ft 440 kts 308°
2026-05-06 23:24 42.86354 17.27484 40045 ft 441 kts 308°
2026-05-06 23:25 42.90469 17.21279 40044 ft 441 kts 308°
2026-05-06 23:25 42.94585 17.15057 40046 ft 441 kts 308°
2026-05-06 23:26 42.98695 17.08832 40046 ft 441 kts 307°
2026-05-06 23:26 43.02804 17.02593 40044 ft 441 kts 307°
2026-05-06 23:27 43.06900 16.96361 40045 ft 443 kts 307°
2026-05-06 23:27 43.11019 16.90081 40034 ft 443 kts 307°
2026-05-06 23:28 43.15137 16.83790 40034 ft 443 kts 307°
2026-05-06 23:28 43.19248 16.77495 40039 ft 443 kts 307°
2026-05-06 23:29 43.23331 16.71228 40029 ft 443 kts 307°
2026-05-06 23:29 43.27435 16.64915 40028 ft 444 kts 307°
2026-05-06 23:30 43.30853 16.59646 40031 ft 444 kts 307°
2026-05-06 23:30 43.34964 16.53299 40014 ft 445 kts 307°
2026-05-06 23:31 43.39073 16.46941 40013 ft 445 kts 307°
2026-05-06 23:31 43.43186 16.40562 40025 ft 445 kts 307°
2026-05-06 23:32 43.47285 16.34190 40035 ft 445 kts 307°
2026-05-06 23:32 43.51407 16.27813 40025 ft 447 kts 308°
2026-05-06 23:33 43.55706 16.21600 40020 ft 448 kts 309°
2026-05-06 23:33 43.60024 16.15463 39998 ft 448 kts 309°
2026-05-06 23:34 43.64347 16.09251 39995 ft 448 kts 309°
2026-05-06 23:34 43.68645 16.03016 39991 ft 448 kts 309°
2026-05-06 23:35 43.72942 15.96754 39995 ft 449 kts 309°
2026-05-06 23:35 43.77246 15.90470 39985 ft 450 kts 308°
2026-05-06 23:36 43.81521 15.84218 39984 ft 450 kts 308°
2026-05-06 23:36 43.85820 15.77917 39983 ft 450 kts 308°
2026-05-06 23:37 43.90110 15.71613 39982 ft 450 kts 308°
2026-05-06 23:37 43.94400 15.65295 40001 ft 450 kts 308°
2026-05-06 23:38 43.98688 15.58964 39989 ft 450 kts 308°
2026-05-06 23:38 44.02978 15.52614 39991 ft 450 kts 308°
2026-05-06 23:39 44.07261 15.46261 39994 ft 450 kts 308°
2026-05-06 23:39 44.11544 15.39895 39994 ft 450 kts 308°
2026-05-06 23:40 44.15797 15.33559 39999 ft 450 kts 308°
2026-05-06 23:40 44.20081 15.27164 39994 ft 451 kts 308°
2026-05-06 23:41 44.24363 15.20757 39993 ft 451 kts 308°
2026-05-06 23:41 44.28650 15.14328 39995 ft 451 kts 308°
2026-05-06 23:42 44.32901 15.07937 40004 ft 451 kts 308°
2026-05-06 23:42 44.37175 15.01497 39996 ft 452 kts 308°
2026-05-06 23:43 44.41455 14.95033 40002 ft 452 kts 308°
2026-05-06 23:43 44.45727 14.88568 39994 ft 452 kts 308°
2026-05-06 23:44 44.49998 14.82088 39991 ft 452 kts 308°
2026-05-06 23:44 44.54233 14.75649 39992 ft 452 kts 307°
2026-05-06 23:45 44.58493 14.69154 39987 ft 452 kts 307°
2026-05-06 23:45 44.62747 14.62655 39983 ft 452 kts 307°
2026-05-06 23:46 44.67005 14.56135 39985 ft 451 kts 307°
2026-05-06 23:46 44.71248 14.49623 39976 ft 451 kts 307°
2026-05-06 23:47 44.75486 14.43103 39979 ft 451 kts 307°
2026-05-06 23:47 44.79697 14.36607 39976 ft 451 kts 307°
2026-05-06 23:48 44.83929 14.30065 39973 ft 451 kts 307°
2026-05-06 23:48 44.88156 14.23517 39980 ft 451 kts 307°
2026-05-06 23:49 44.92387 14.16946 39975 ft 453 kts 307°
2026-05-06 23:49 44.96622 14.10351 39966 ft 454 kts 307°
2026-05-06 23:50 45.00859 14.03742 39971 ft 454 kts 307°
2026-05-06 23:50 45.07204 13.93813 39966 ft 454 kts 307°
2026-05-06 23:51 45.11436 13.87169 39966 ft 455 kts 307°
2026-05-06 23:51 45.15682 13.80489 39960 ft 457 kts 307°
2026-05-06 23:52 45.19936 13.73781 39955 ft 458 kts 307°
2026-05-06 23:52 45.24166 13.67095 39950 ft 458 kts 307°
2026-05-06 23:53 45.28413 13.60365 39945 ft 458 kts 307°
2026-05-06 23:53 45.32680 13.53583 39942 ft 462 kts 307°
2026-05-06 23:54 45.36971 13.46748 39940 ft 462 kts 307°
2026-05-06 23:54 45.41258 13.39902 39939 ft 464 kts 307°
2026-05-06 23:55 45.45551 13.33027 39940 ft 465 kts 307°
2026-05-06 23:55 45.49942 13.26364 39937 ft 463 kts 310°
2026-05-06 23:56 45.54585 13.20007 39934 ft 461 kts 311°
2026-05-06 23:56 45.59259 13.13722 39931 ft 462 kts 311°
2026-05-06 23:57 45.63938 13.07425 39922 ft 461 kts 311°
2026-05-06 23:57 45.68600 13.01122 39944 ft 461 kts 311°
2026-05-06 23:58 45.73249 12.94812 39925 ft 460 kts 311°
2026-05-06 23:58 45.77858 12.88539 39925 ft 460 kts 311°
2026-05-06 23:59 45.82496 12.82211 39927 ft 459 kts 311°
2026-05-06 23:59 45.87119 12.75887 39929 ft 460 kts 311°
2026-05-07 00:00 45.91761 12.69523 39942 ft 461 kts 311°
2026-05-07 00:00 45.95622 12.64218 39937 ft 462 kts 311°
2026-05-07 00:01 46.01021 12.56784 39939 ft 463 kts 311°
2026-05-07 00:01 46.05670 12.50365 39941 ft 463 kts 311°
2026-05-07 00:02 46.10309 12.43943 39935 ft 462 kts 311°
2026-05-07 00:02 46.14944 12.37511 39947 ft 462 kts 310°
2026-05-07 00:03 46.19577 12.31066 39953 ft 462 kts 310°
2026-05-07 00:03 46.24210 12.24603 39950 ft 462 kts 310°
2026-05-07 00:04 46.28831 12.18142 39959 ft 462 kts 310°
2026-05-07 00:04 46.33429 12.11700 39966 ft 463 kts 310°
2026-05-07 00:05 46.38063 12.05189 39972 ft 465 kts 310°
2026-05-07 00:05 46.42707 11.98649 39954 ft 465 kts 311°
2026-05-07 00:06 46.47343 11.92106 39957 ft 466 kts 310°
2026-05-07 00:06 46.51982 11.85539 39953 ft 466 kts 310°
2026-05-07 00:07 46.56599 11.78988 39969 ft 467 kts 310°
2026-05-07 00:07 46.61234 11.72395 39949 ft 466 kts 311°
2026-05-07 00:08 46.65746 11.65645 39940 ft 464 kts 308°
2026-05-07 00:08 46.70147 11.58768 39938 ft 464 kts 308°
2026-05-07 00:09 46.74554 11.51894 39956 ft 464 kts 308°
2026-05-07 00:09 46.78985 11.45022 39957 ft 464 kts 308°
2026-05-07 00:10 46.83394 11.38188 39941 ft 465 kts 309°
2026-05-07 00:10 46.87835 11.31289 39947 ft 466 kts 309°
2026-05-07 00:11 46.92282 11.24372 39943 ft 467 kts 309°
2026-05-07 00:11 46.97378 11.18383 39949 ft 473 kts 322°
2026-05-07 00:12 47.02919 11.13133 39958 ft 475 kts 324°
2026-05-07 00:12 47.08456 11.07964 39945 ft 473 kts 320°
2026-05-07 00:13 47.13661 11.02051 39943 ft 473 kts 317°
2026-05-07 00:13 47.18767 10.95982 39944 ft 472 kts 317°
2026-05-07 00:14 47.23851 10.89861 39945 ft 472 kts 317°
2026-05-07 00:14 47.28937 10.83728 39958 ft 472 kts 317°
2026-05-07 00:15 47.34025 10.77583 39953 ft 474 kts 317°
2026-05-07 00:15 47.39133 10.71396 39938 ft 475 kts 317°
2026-05-07 00:16 47.44444 10.65633 39944 ft 477 kts 323°
2026-05-07 00:16 47.47205 10.62919 39784 ft 474 kts 323°
2026-05-07 00:16 47.49939 10.60257 39606 ft 467 kts 323°
2026-05-07 00:17 47.52639 10.57603 39238 ft 466 kts 322°
2026-05-07 00:17 47.55337 10.54906 38682 ft 469 kts 322°
2026-05-07 00:17 47.58035 10.52164 38061 ft 471 kts 321°
2026-05-07 00:17 47.60725 10.49394 37537 ft 471 kts 321°
2026-05-07 00:18 47.63417 10.46606 36972 ft 472 kts 321°
2026-05-07 00:18 47.65200 10.44755 36606 ft 472 kts 321°
2026-05-07 00:18 47.67807 10.41822 36038 ft 469 kts 314°
2026-05-07 00:18 47.70085 10.38398 35461 ft 463 kts 304°
2026-05-07 00:19 47.72418 10.33162 34635 ft 455 kts 291°
2026-05-07 00:19 47.73260 10.30257 34199 ft 451 kts 284°
2026-05-07 00:19 47.74041 10.25836 33488 ft 445 kts 274°
2026-05-07 00:19 47.74288 10.21280 32778 ft 439 kts 265°
2026-05-07 00:20 47.74271 10.16749 32096 ft 437 kts 264°
2026-05-07 00:20 47.74174 10.12241 31415 ft 435 kts 263°
2026-05-07 00:20 47.74046 10.07771 30912 ft 430 kts 262°
2026-05-07 00:20 47.73912 10.03359 30406 ft 425 kts 262°
2026-05-07 00:21 47.73782 9.98999 29843 ft 421 kts 262°
2026-05-07 00:21 47.73661 9.94672 29275 ft 416 kts 262°
2026-05-07 00:21 47.73550 9.90405 28756 ft 410 kts 262°
2026-05-07 00:21 47.73440 9.86190 28246 ft 405 kts 262°
2026-05-07 00:22 47.73332 9.82037 27734 ft 400 kts 262°
2026-05-07 00:22 47.73225 9.77931 27224 ft 396 kts 262°
2026-05-07 00:22 47.73116 9.73852 26733 ft 392 kts 262°
2026-05-07 00:22 47.73007 9.69821 26229 ft 389 kts 262°
2026-05-07 00:23 47.72898 9.65861 25727 ft 388 kts 263°
2026-05-07 00:23 47.72789 9.61870 25223 ft 386 kts 263°
2026-05-07 00:23 47.72677 9.57899 24714 ft 384 kts 263°
2026-05-07 00:23 47.72564 9.53951 24206 ft 382 kts 263°
2026-05-07 00:24 47.72451 9.50003 23698 ft 381 kts 263°
2026-05-07 00:24 47.72258 9.46101 23133 ft 377 kts 257°
2026-05-07 00:24 47.71573 9.42401 22618 ft 368 kts 243°
2026-05-07 00:24 47.70288 9.39170 22138 ft 361 kts 231°
2026-05-07 00:25 47.68737 9.36261 21626 ft 358 kts 229°
2026-05-07 00:25 47.67158 9.33416 21153 ft 356 kts 229°
2026-05-07 00:25 47.65585 9.30586 20686 ft 355 kts 229°
2026-05-07 00:25 47.64040 9.27795 20205 ft 354 kts 229°
2026-05-07 00:26 47.62483 9.24979 19746 ft 353 kts 229°
2026-05-07 00:26 47.60930 9.22160 19258 ft 353 kts 230°
2026-05-07 00:26 47.59590 9.19104 18771 ft 355 kts 243°
2026-05-07 00:26 47.58829 9.15611 18280 ft 358 kts 256°
2026-05-07 00:27 47.58359 9.11978 17727 ft 359 kts 258°
2026-05-07 00:27 47.57928 9.08345 17214 ft 356 kts 258°
2026-05-07 00:27 47.57494 9.04738 16738 ft 353 kts 258°
2026-05-07 00:27 47.57157 9.01153 16260 ft 352 kts 269°
2026-05-07 00:28 47.57677 8.97612 15811 ft 357 kts 292°
2026-05-07 00:28 47.58930 8.94435 15318 ft 357 kts 300°
2026-05-07 00:28 47.60203 8.91297 14826 ft 355 kts 296°
2026-05-07 00:28 47.61347 8.88064 14329 ft 353 kts 293°
2026-05-07 00:29 47.62376 8.84773 13834 ft 351 kts 289°
2026-05-07 00:29 47.62952 8.81344 13299 ft 345 kts 272°
2026-05-07 00:30 47.60974 8.71424 11870 ft 333 kts 247°
2026-05-07 00:30 47.60076 8.68283 11395 ft 329 kts 247°
2026-05-07 00:30 47.59276 8.65122 10924 ft 327 kts 255°
2026-05-07 00:30 47.59084 8.61788 10469 ft 326 kts 275°
2026-05-07 00:31 47.59759 8.58631 10320 ft 318 kts 295°
2026-05-07 00:31 47.61090 8.56081 10201 ft 310 kts 311°
2026-05-07 00:31 47.62639 8.53925 10073 ft 300 kts 314°
2026-05-07 00:31 47.64146 8.51905 9945 ft 290 kts 314°
2026-05-07 00:32 47.65619 8.49918 9773 ft 282 kts 313°
2026-05-07 00:32 47.67059 8.47954 9448 ft 279 kts 313°
2026-05-07 00:32 47.68480 8.46006 9157 ft 277 kts 313°
2026-05-07 00:32 47.69894 8.44065 8820 ft 275 kts 312°
2026-05-07 00:33 47.71294 8.42136 8493 ft 274 kts 313°
2026-05-07 00:33 47.72662 8.40185 8194 ft 269 kts 308°
2026-05-07 00:33 47.73648 8.37882 7844 ft 262 kts 287°
2026-05-07 00:33 47.73910 8.35268 7513 ft 255 kts 264°
2026-05-07 00:34 47.73441 8.32761 7186 ft 253 kts 243°
2026-05-07 00:34 47.72364 8.30747 6861 ft 253 kts 226°
2026-05-07 00:34 47.71052 8.29029 6566 ft 251 kts 218°
2026-05-07 00:34 47.69467 8.27931 6245 ft 255 kts 197°
2026-05-07 00:35 47.67671 8.27909 5917 ft 265 kts 172°
2026-05-07 00:35 47.65984 8.29107 5527 ft 276 kts 147°
2026-05-07 00:35 47.64552 8.30992 5159 ft 272 kts 141°
2026-05-07 00:35 47.63218 8.32914 4981 ft 263 kts 141°
2026-05-07 00:36 47.61956 8.34812 4856 ft 255 kts 140°
2026-05-07 00:36 47.60684 8.36593 4731 ft 247 kts 143°
2026-05-07 00:36 47.59433 8.38283 4630 ft 240 kts 142°
2026-05-07 00:36 47.58218 8.39934 4445 ft 233 kts 143°
2026-05-07 00:37 47.57063 8.41515 4067 ft 222 kts 142°
2026-05-07 00:37 47.55975 8.43018 3820 ft 205 kts 142°
2026-05-07 00:37 47.54947 8.44430 3398 ft 200 kts 142°
2026-05-07 00:37 47.53925 8.45822 3047 ft 199 kts 141°
2026-05-07 00:38 47.52921 8.47186 2811 ft 193 kts 141°
2026-05-07 00:38 47.51958 8.48503 2492 ft 180 kts 140°
2026-05-07 00:38 47.51078 8.49705 2226 ft 164 kts 139°
2026-05-07 00:38 47.50285 8.50785 1996 ft 150 kts 139°
2026-05-07 00:39 47.49546 8.51796 1784 ft 139 kts 138°
2026-05-07 00:39 47.48851 8.52741 1619 ft 134 kts 138°
2026-05-07 00:39 47.48162 8.53679 1452 ft 135 kts 138°
2026-05-07 00:39 47.47494 8.54585 1405 ft 113 kts 137°
2026-05-07 00:40 47.47049 8.55195 1403 ft 62 kts 137°
2026-05-07 00:40 47.46790 8.55545 1407 ft 37 kts 138°
2026-05-07 00:40 47.46617 8.55673 1403 ft 21 kts 167°
2026-05-07 00:40 47.46479 8.55719 1405 ft 14 kts 168°
2026-05-07 00:41 47.46384 8.55762 1409 ft 14 kts 152°
2026-05-07 00:41 47.46314 8.55852 1414 ft 13 kts 137°
2026-05-07 00:41 47.46255 8.55900 1416 ft 3 kts 202°
2026-05-07 00:41 47.46236 8.55870 1416 ft 5 kts 236°
2026-05-07 00:42 47.46229 8.55816 1413 ft 5 kts 257°
2026-05-07 00:42 47.46206 8.55788 1413 ft 4 kts 201°
2026-05-07 00:42 47.46183 8.55784 1412 ft 2 kts 186°
2026-05-07 00:42 47.46165 8.55781 1411 ft 2 kts 187°
2026-05-07 00:43 47.46157 8.55780 1412 ft 0 kts 186°